Погода в Чамзинке

Россия / Ульяновская область     54°04′06″N   46°26′49″E
темп.,
°C
ветер,
м/с
пор.,
м/с
влажн.,
%
обл.,
%
осадки,
мм/ч
давл.,
гПа
погр.,
м
21 июня, пн
пн2101:00+18юз00910 0.0 102211
04:00+17юз11930 0.0 102311
07:00+21зюз01815 0.0 102377
10:00+27зюз11585 0.0 1022840
13:00+29зюз22464 0.0 10221723
16:00+29зсз224548 0.0 10211897
19:00+26с2368100 0.0 1021132
22:00+21св118388 0.0 102211
22 июня, вт
вт2201:00+19юв018710 0.0 102211
04:00+18юз009169 0.0 102311
07:00+22св0179100 0.0 102364
10:00+27св005761 0.0 1023794
13:00+30зюз11434 0.0 10231991
16:00+30юз224312 0.0 10221998
19:00+27ссв23660 0.0 1022137
22:00+21св11811 0.1 102212
23 июня, ср
ср2301:00+20вюв118352 0.0 102211
04:00+21в118075 0.0 102211
07:00+22св007969 0.0 102236
10:00+28св11565 0.0 1022623
13:00+31сз22402 0.0 10212534
16:00+30ссз334233 0.0 10211773
19:00+28св12620 0.0 102061
22:00+20ююз228814 0.3 102126
24 июня, чт
чт2401:00+20зсз11890 0.0 102111
04:00+19зсз11900 0.0 102111
07:00+22зсз13854 0.2 1020105
10:00+27зсз23605 0.2 1020674
13:00+29ссз345289 1.8 10201479
16:00+29ссз455167 1.8 10191555
19:00+25зсз368239 1.1 1017115
22:00+19всв0182100 6.8 101811
25 июня, пт
пт2501:00+18зсз118778 0.1 101811
04:00+18сз119212 0.3 101814
07:00+22зсз12885 0.0 101787
10:00+26сз2483100 1.4 1016226
13:00+29сз3452100 0.4 10161329
16:00+30сз354825 0.4 10161593
19:00+27зсз2470100 0.1 1015186
22:00+22з1186100 0.4 101511